Date,TemperatureHighF,TemperatureAvgF,TemperatureLowF,DewpointHighF,DewpointAvgF,DewpointLowF,HumidityHigh,HumidityAvg,HumidityLow,PressureMaxIn,PressureMinIn,WindSpeedMaxMPH,WindSpeedAvgMPH,GustSpeedMaxMPH,PrecipitationSumIn
2013-1-1,43.9,35.1,27.6,27.0,19.8,14.0,86,57,32,30.29,30.15,10,2,11,0.00
2013-1-2,46.4,37.3,26.1,21.0,14.6,10.0,64,41,25,30.28,30.12,27,5,31,0.00
2013-1-3,37.5,31.4,27.3,26.0,22.6,18.0,87,71,48,30.37,30.15,32,21,47,0.00
2013-1-4,31.6,28.5,26.1,27.0,23.5,21.0,88,81,78,30.47,30.36,22,7,30,0.00
2013-1-5,31.1,27.5,24.6,27.0,24.0,21.0,91,87,75,30.52,30.42,6,1,9,0.00
2013-1-6,44.0,36.7,23.0,28.0,23.8,19.0,90,62,42,30.53,30.12,31,10,42,0.01
2013-1-7,51.1,45.5,41.1,33.0,28.0,24.0,59,51,44,30.12,29.75,35,18,47,0.00
2013-1-8,54.3,47.5,39.6,31.0,24.6,15.0,63,43,24,30.00,29.77,19,4,31,0.00
2013-1-9,55.2,48.3,36.1,29.0,22.9,14.0,49,37,26,30.20,30.02,25,6,31,0.00
2013-1-10,57.6,47.8,37.2,30.0,24.5,16.0,59,41,33,30.05,29.83,6,2,11,0.00
2013-1-11,53.3,45.4,34.7,27.0,19.5,7.0,56,36,29,29.83,29.72,19,6,22,0.00
2013-1-12,39.3,32.9,26.6,10.0,6.4,3.0,41,33,24,30.12,29.82,19,5,23,0.00
2013-1-13,39.3,31.5,20.4,10.0,4.0,-1.0,52,32,22,30.22,30.05,16,4,22,0.00
2013-1-14,40.9,32.8,27.2,19.0,10.6,-2.0,70,43,23,30.11,30.02,32,12,34,0.00
2013-1-15,34.9,28.3,21.1,12.0,1.5,-8.0,58,34,16,30.46,30.12,14,4,19,0.00
2013-1-16,45.3,33.6,24.0,6.0,1.6,-5.0,36,26,19,30.55,30.43,11,2,14,0.00
2013-1-17,54.2,43.5,28.8,22.0,13.7,3.0,38,30,24,30.56,30.35,25,7,34,0.00
2013-1-18,58.3,48.9,43.3,22.0,18.6,15.0,40,31,19,30.34,30.16,27,8,35,0.00
2013-1-19,59.9,49.6,38.8,20.0,16.7,13.0,43,28,19,30.29,30.16,6,2,10,0.00
2013-1-20,62.0,51.6,41.8,18.0,13.3,6.0,33,23,12,30.22,30.04,4,1,7,0.00
2013-1-21,63.7,52.2,38.6,14.0,11.4,8.0,32,20,12,30.18,30.05,14,2,14,0.00
2013-1-22,63.9,53.4,42.3,16.0,12.4,10.0,29,20,13,30.21,30.10,5,1,9,0.00
2013-1-23,67.9,57.9,48.5,23.0,17.1,13.0,26,20,15,30.27,30.12,4,1,7,0.00
2013-1-24,70.3,60.0,50.3,32.0,24.4,18.0,37,26,19,30.18,30.04,7,1,11,0.00
2013-1-25,64.0,57.5,50.9,42.0,38.2,33.0,59,49,38,30.13,29.98,15,2,18,0.00
2013-1-26,64.9,58.0,50.9,48.0,43.5,39.0,75,59,47,29.99,29.82,14,3,20,0.05
2013-1-27,61.8,54.9,49.6,45.0,42.2,38.0,81,64,46,29.94,29.84,10,2,18,0.00
2013-1-28,62.9,53.6,45.0,39.0,35.5,30.0,73,52,33,29.88,29.72,16,4,21,0.00
2013-1-29,42.9,37.1,33.1,33.0,21.0,12.0,82,55,32,30.08,29.74,25,9,34,0.00
2013-1-30,47.1,37.8,28.1,22.0,13.9,5.0,75,42,18,30.33,30.09,12,4,16,0.00
2013-1-31,55.3,45.5,36.6,20.0,16.7,14.0,41,32,23,30.31,30.18,7,2,9,0.00
2013-2-1,60.2,50.3,37.3,21.0,16.7,14.0,44,27,18,30.23,30.10,7,1,10,0.00
2013-2-2,64.1,53.4,42.0,19.0,15.1,8.0,36,23,13,30.30,30.17,20,4,26,0.00
2013-2-3,61.4,54.8,50.0,32.0,18.1,13.0,47,25,16,30.17,29.86,25,10,29,0.00
2013-2-4,61.6,54.0,47.1,33.0,30.7,27.0,50,42,34,29.98,29.86,7,2,13,0.00
2013-2-5,64.1,55.0,43.2,35.0,30.9,26.0,66,42,24,29.97,29.84,7,2,10,0.00
2013-2-6,64.1,55.9,47.5,32.0,28.7,23.0,49,36,23,29.90,29.77,13,3,16,0.00
2013-2-7,63.0,54.2,46.1,33.0,26.6,19.0,54,37,20,30.03,29.88,19,4,28,0.00
2013-2-8,67.6,55.7,46.3,27.0,21.2,4.0,45,28,12,30.00,29.73,42,16,48,0.00
2013-2-9,57.7,49.5,35.6,23.0,15.9,8.0,46,27,16,29.88,29.61,22,7,31,0.00
2013-2-10,51.2,41.4,33.2,19.0,13.8,7.0,54,35,18,30.01,29.89,12,4,18,0.00
2013-2-11,56.7,47.2,38.5,28.0,12.8,9.0,65,26,18,29.98,29.81,10,3,15,0.00
2013-2-12,47.2,38.6,30.4,31.0,17.2,3.0,84,49,16,30.18,29.92,13,4,19,0.00
2013-2-13,52.0,41.8,30.6,13.0,10.7,8.0,48,29,18,30.22,30.06,9,2,15,0.00
2013-2-14,57.9,46.9,32.3,17.0,12.4,8.0,38,25,18,30.14,29.98,11,2,18,0.00
2013-2-15,55.5,47.1,38.3,27.0,21.7,12.0,59,38,19,30.30,30.09,25,8,34,0.00
2013-2-16,59.5,48.7,34.9,23.0,16.2,9.0,55,30,14,30.39,30.10,6,1,10,0.00
2013-2-17,65.9,54.3,40.1,12.0,7.3,0.0,26,16,7,30.09,29.73,11,3,14,0.00
2013-2-18,60.7,53.2,42.8,13.0,6.0,0.0,26,16,9,29.99,29.79,15,5,21,0.00
2013-2-19,56.3,52.1,46.4,45.0,22.0,1.0,92,42,11,29.94,29.71,25,10,29,0.23
2013-2-20,57.8,48.4,33.5,39.0,27.1,18.0,83,48,23,29.72,29.48,19,8,29,0.00
2013-2-21,48.0,37.2,27.8,25.0,22.0,20.0,77,56,34,29.98,29.73,13,5,22,0.00
2013-2-22,52.2,41.9,31.3,25.0,21.6,18.0,69,47,27,30.09,29.96,12,4,19,0.00
2013-2-23,56.9,45.8,34.8,21.0,17.0,10.0,54,33,23,30.09,29.76,11,3,16,0.00
2013-2-24,58.3,44.9,29.6,24.0,16.8,5.0,57,34,16,29.88,29.54,25,7,41,0.00
2013-2-25,50.2,37.6,24.5,15.0,11.0,7.0,56,36,18,30.14,29.89,15,3,19,0.00
2013-2-26,62.4,46.9,33.4,13.0,4.6,-7.0,37,20,6,30.03,29.80,14,4,27,0.00
2013-2-27,51.0,43.7,36.5,12.0,0.8,-5.0,29,17,11,30.22,30.00,22,6,26,0.00
2013-2-28,54.6,45.7,38.8,15.0,9.1,1.0,33,23,14,30.30,30.16,23,7,27,0.00
2013-3-1,62.2,50.8,39.8,12.0,5.9,0.0,23,16,12,30.34,30.20,9,3,12,0.00
2013-3-2,68.4,57.1,44.3,16.0,12.1,8.0,23,17,12,30.32,30.08,6,2,10,0.00
2013-3-3,78.1,64.1,52.5,14.0,6.8,-18.0,19,12,2,30.08,29.75,16,4,25,0.00
2013-3-4,74.7,62.9,52.6,31.0,15.4,-2.0,25,16,6,29.91,29.59,23,6,37,0.00
2013-3-5,60.6,51.8,40.9,26.0,23.4,18.0,52,34,24,30.14,29.91,36,21,46,0.00
2013-3-6,74.2,61.2,49.3,25.0,23.1,22.0,34,24,15,30.11,29.83,33,14,44,0.00
2013-3-7,74.0,66.3,60.3,25.0,20.9,11.0,25,18,9,29.86,29.71,12,3,22,0.00
2013-3-8,65.7,59.4,53.8,48.0,34.7,19.0,73,41,19,29.80,29.64,15,4,27,0.00
2013-3-9,55.3,45.6,38.7,36.0,27.4,20.0,73,52,26,29.95,29.69,18,8,29,0.00
2013-3-10,55.4,44.5,33.5,28.0,23.6,20.0,77,47,27,30.16,29.95,17,4,23,0.00
2013-3-11,63.6,52.7,40.5,24.0,18.8,13.0,43,28,16,30.17,29.96,11,2,15,0.00
2013-3-12,69.6,58.3,44.2,23.0,16.2,12.0,32,20,11,30.10,29.98,25,6,37,0.00
2013-3-13,74.0,61.7,52.2,23.0,17.5,6.0,31,20,7,30.20,30.04,34,14,40,0.00
2013-3-14,78.3,69.0,59.6,17.0,9.4,1.0,17,10,5,30.12,29.95,17,5,26,0.00
2013-3-15,81.9,71.1,61.5,18.0,5.4,-7.0,15,8,3,29.96,29.73,8,2,12,0.00
2013-3-16,80.6,69.7,57.3,21.0,10.5,-2.0,18,11,4,29.73,29.54,14,3,21,0.00
2013-3-17,75.3,65.9,56.2,21.0,13.5,8.0,21,13,9,29.73,29.56,20,6,29,0.00
2013-3-18,74.0,63.1,51.4,23.0,15.3,9.0,24,16,9,29.88,29.72,13,4,21,0.00
2013-3-19,73.1,63.7,53.1,21.0,16.0,11.0,21,16,11,29.92,29.77,22,5,28,0.00
2013-3-20,68.8,59.7,49.8,33.0,26.9,19.0,48,30,19,30.02,29.77,30,13,38,0.00
2013-3-21,75.7,66.2,57.1,29.0,23.0,15.0,29,20,10,29.76,29.52,15,5,28,0.00
2013-3-22,75.4,64.7,54.4,29.0,23.2,17.0,30,21,15,29.64,29.48,19,5,25,0.00
2013-3-23,68.9,59.9,51.7,27.0,14.8,-1.0,36,20,7,29.82,29.61,22,6,31,0.00
2013-3-24,61.8,50.0,36.1,3.0,-4.1,-19.0,19,11,6,30.00,29.81,24,8,34,0.00
2013-3-25,56.9,49.8,38.4,9.0,4.7,-3.0,24,16,10,30.09,29.88,32,15,41,0.00
2013-3-26,68.4,54.4,42.2,16.0,13.1,10.0,29,20,12,30.16,29.93,37,18,48,0.00
2013-3-27,75.4,65.3,54.1,25.0,19.2,15.0,24,17,12,29.95,29.79,16,4,20,0.00
2013-3-28,77.0,69.1,59.3,28.0,21.3,14.0,20,16,13,29.94,29.80,10,2,17,0.00
2013-3-29,78.9,69.3,60.3,26.0,18.4,12.0,24,15,9,29.93,29.80,11,3,13,0.00
2013-3-30,79.1,69.3,55.5,27.0,17.3,12.0,20,14,9,29.92,29.75,10,3,15,0.00
2013-3-31,78.5,69.2,60.1,32.0,23.1,15.0,30,18,12,29.86,29.73,13,2,15,0.00
2013-4-1,81.0,70.7,57.4,30.0,17.5,3.0,26,14,5,29.84,29.65,15,3,18,0.00
2013-4-2,78.3,67.2,58.9,26.0,17.2,6.0,25,15,6,29.73,29.56,18,4,26,0.00
2013-4-3,70.4,59.5,46.0,36.0,27.9,7.0,60,34,12,29.94,29.71,20,6,24,0.00
2013-4-4,77.9,66.9,51.4,32.0,19.4,3.0,39,19,7,30.04,29.88,21,4,21,0.00
2013-4-5,82.6,71.5,62.3,23.0,13.4,2.0,21,12,5,29.90,29.63,28,10,30,0.00
2013-4-6,78.8,68.1,59.4,31.0,23.0,17.0,28,19,10,29.79,29.63,16,3,18,0.00
2013-4-7,79.8,69.0,56.9,29.0,21.4,17.0,25,17,10,29.74,29.54,19,4,22,0.00
2013-4-8,81.7,68.8,57.5,27.0,20.4,10.0,30,17,7,29.58,29.29,20,6,27,0.00
2013-4-9,68.2,55.8,47.4,35.0,24.8,15.0,59,32,15,29.76,29.28,20,7,32,0.00
2013-4-10,61.2,52.1,41.8,29.0,24.0,17.0,58,36,18,29.89,29.74,15,4,25,0.00
2013-4-11,71.3,56.1,41.1,22.0,16.9,7.0,42,24,11,29.89,29.70,9,3,14,0.00
2013-4-12,75.9,66.2,55.4,24.0,15.3,10.0,23,14,9,29.76,29.58,14,3,24,0.00
2013-4-13,78.1,70.1,61.6,27.0,19.4,13.0,22,15,9,29.64,29.48,16,3,19,0.00
2013-4-14,78.4,67.5,55.7,27.0,22.2,17.0,27,18,11,29.64,29.49,16,5,31,0.00
2013-4-15,81.0,68.2,56.0,29.0,20.5,13.0,34,18,8,29.67,29.54,18,6,23,0.00
2013-4-16,82.3,70.2,60.1,28.0,17.1,0.0,27,15,4,29.69,29.54,19,5,26,0.00
2013-4-17,76.4,65.1,51.7,28.0,19.0,7.0,28,18,7,29.74,29.47,26,7,35,0.00
2013-4-18,61.9,52.5,42.0,21.0,11.8,-7.0,40,22,6,30.07,29.74,23,6,27,0.00
2013-4-19,65.1,54.4,45.1,4.0,-5.4,-26.0,16,9,2,30.20,29.94,24,7,31,0.00
2013-4-20,76.2,65.0,50.9,10.0,-2.3,-21.0,11,7,2,29.94,29.69,14,4,29,0.00
2013-4-21,79.7,68.5,54.2,15.0,8.8,4.0,15,10,6,29.95,29.77,11,2,17,0.00
2013-4-22,84.4,72.6,59.3,18.0,7.3,-5.0,15,8,3,29.84,29.58,11,3,19,0.00
2013-4-23,82.6,71.2,57.0,24.0,10.5,3.0,28,10,5,29.75,29.55,32,6,40,0.00
2013-4-24,71.5,57.2,43.0,29.0,25.3,22.0,48,32,16,29.98,29.76,36,19,45,0.00
2013-4-25,81.7,67.7,56.5,39.0,27.7,5.0,39,26,6,29.94,29.70,41,17,46,0.00
2013-4-26,79.5,68.3,58.2,23.0,12.9,-3.0,23,13,4,29.96,29.81,12,4,17,0.00
2013-4-27,82.0,71.5,62.8,25.0,13.6,-2.0,23,12,4,29.94,29.75,25,9,28,0.00
2013-4-28,82.9,74.5,61.4,37.0,24.7,12.0,33,17,7,29.79,29.60,20,6,25,0.00
2013-4-29,86.6,75.9,63.4,31.0,13.1,-13.0,28,12,2,29.66,29.48,10,2,18,0.00
2013-4-30,87.8,76.6,63.1,20.0,10.6,-3.0,14,8,3,29.60,29.48,19,3,22,0.00
2013-5-1,84.7,74.7,64.7,23.0,12.6,-1.0,17,10,4,29.75,29.54,13,4,23,0.00
2013-5-2,72.4,54.1,46.4,34.0,23.4,7.0,49,32,8,30.28,29.75,38,19,48,0.00
2013-5-3,66.8,53.3,40.0,20.0,14.0,5.0,45,24,10,30.34,29.93,41,13,43,0.00
2013-5-4,81.0,68.1,54.7,20.0,13.8,4.0,20,13,9,29.93,29.66,25,8,30,0.00
2013-5-5,81.1,70.5,61.9,27.0,20.1,12.0,17,15,12,29.86,29.67,35,14,40,0.00
2013-5-6,78.6,70.5,62.8,38.0,28.9,20.0,38,22,14,29.80,29.68,27,6,31,0.00
2013-5-7,78.5,69.0,57.7,33.0,26.5,20.0,27,21,11,29.86,29.68,17,4,22,0.00
2013-5-8,77.9,68.1,57.0,32.0,24.7,18.0,32,21,11,29.85,29.70,16,4,22,0.00
2013-5-9,77.6,68.2,58.5,30.0,23.9,17.0,29,19,13,29.83,29.70,11,3,22,0.00
2013-5-10,75.3,64.3,55.1,46.0,34.0,25.0,72,34,20,29.98,29.77,34,10,44,0.00
2013-5-11,72.3,62.8,56.2,44.0,39.0,26.0,56,43,19,30.11,29.98,25,7,30,0.00
2013-5-12,76.2,67.0,58.8,38.0,33.8,27.0,44,31,19,30.12,29.93,15,4,19,0.00
2013-5-13,80.5,69.6,59.5,36.0,28.9,17.0,39,24,10,30.07,29.88,20,8,28,0.00
2013-5-14,81.7,72.1,61.9,41.0,34.7,17.0,40,27,9,29.92,29.70,10,2,13,0.00
2013-5-15,88.0,76.3,62.6,37.0,30.6,25.0,32,20,11,29.80,29.60,13,4,22,0.00
2013-5-16,88.5,78.6,67.9,33.0,25.3,16.0,23,15,7,29.74,29.56,13,4,21,0.00
2013-5-17,90.3,79.6,70.6,28.0,21.6,13.0,16,12,7,29.70,29.57,12,3,19,0.00
2013-5-18,85.0,75.9,65.7,32.0,20.1,5.0,20,13,5,29.72,29.56,22,5,24,0.00
2013-5-19,84.9,73.7,62.0,33.0,21.4,9.0,23,15,6,29.72,29.53,16,4,23,0.00
2013-5-20,86.2,74.6,62.0,32.0,24.2,11.0,27,16,6,29.71,29.51,13,4,26,0.00
2013-5-21,83.7,72.6,57.8,32.0,20.2,8.0,27,15,7,29.77,29.62,11,3,22,0.00
2013-5-22,89.5,80.0,68.2,21.0,12.2,-1.0,14,8,3,29.69,29.53,12,2,20,0.00
2013-5-23,93.5,82.1,71.6,48.0,24.5,13.0,43,14,7,29.64,29.50,32,6,48,0.00
2013-5-24,91.6,80.0,67.4,49.0,39.8,25.0,51,26,11,29.75,29.60,18,7,27,0.00
2013-5-25,91.8,81.5,70.9,54.0,36.1,10.0,54,26,6,29.73,29.59,28,9,31,0.00
2013-5-26,91.2,81.2,67.5,30.0,20.5,2.0,23,11,5,29.76,29.59,14,3,18,0.00
2013-5-27,89.5,79.7,70.0,24.0,11.6,0.0,11,8,4,29.68,29.50,11,3,14,0.00
2013-5-28,89.7,79.6,69.3,21.0,9.8,-3.0,13,7,3,29.54,29.36,18,5,22,0.00
2013-5-29,84.6,75.2,65.2,34.0,24.8,3.0,24,16,6,29.54,29.41,16,4,28,0.00
2013-5-30,88.7,77.7,66.7,42.0,32.9,26.0,27,20,11,29.67,29.52,14,3,22,0.00
2013-5-31,92.0,80.7,67.5,39.0,32.1,22.0,28,18,11,29.68,29.51,11,4,20,0.00
2013-6-1,94.7,84.6,75.7,39.0,20.8,1.0,24,10,4,29.66,29.56,28,8,31,0.00
2013-6-2,93.4,77.7,69.5,57.0,48.5,40.0,55,37,24,29.70,29.49,40,19,50,0.00
2013-6-3,94.7,79.5,66.1,54.0,39.3,7.0,65,33,5,29.71,29.55,41,10,60,0.00
2013-6-4,94.9,84.4,71.2,35.0,27.5,17.0,22,13,7,29.68,29.52,11,3,21,0.00
2013-6-5,93.8,84.6,74.4,36.0,27.0,13.0,21,13,6,29.65,29.50,12,3,16,0.00
2013-6-6,91.1,80.4,70.4,46.0,38.1,8.0,41,24,6,29.66,29.54,26,11,39,0.00
2013-6-7,92.1,78.2,67.8,58.0,49.7,35.0,67,40,18,29.69,29.51,28,14,39,0.00
2013-6-8,97.8,83.3,70.3,50.0,39.6,20.0,46,25,7,29.63,29.44,31,7,38,0.00
2013-6-9,96.3,85.9,73.3,50.0,38.7,21.0,28,19,9,29.62,29.49,18,5,28,0.00
2013-6-10,100.2,88.5,77.7,49.0,43.8,33.0,35,22,11,29.67,29.52,22,10,36,0.00
2013-6-11,101.3,90.3,79.8,46.0,37.3,26.0,27,17,8,29.64,29.49,25,8,32,0.00
2013-6-12,102.0,89.9,79.3,49.0,39.0,24.0,31,18,8,29.63,29.49,22,7,29,0.00
2013-6-13,94.1,83.4,75.3,58.0,52.6,41.0,52,37,16,29.66,29.53,27,11,33,0.00
2013-6-14,93.8,79.5,67.9,56.0,52.7,42.0,66,42,22,29.69,29.52,26,9,30,0.00
2013-6-15,96.3,84.2,70.7,58.0,49.3,37.0,63,34,13,29.73,29.58,22,4,24,0.01
2013-6-16,97.4,86.3,75.5,53.0,46.6,43.0,41,26,16,29.72,29.57,12,3,16,0.01
2013-6-17,96.7,85.9,76.6,61.0,49.5,41.0,55,30,15,29.68,29.52,27,6,46,0.13
2013-6-18,95.8,82.3,70.9,57.0,52.3,42.0,57,39,16,29.71,29.56,31,14,39,0.00
2013-6-19,99.1,89.0,79.1,58.0,45.2,30.0,44,26,9,29.60,29.43,19,8,28,0.00
2013-6-20,90.8,85.7,81.7,48.0,45.2,39.0,29,25,16,29.60,29.50,21,8,27,0.00
2013-6-21,94.6,87.5,77.8,51.0,44.3,31.0,39,23,13,29.68,29.52,13,5,16,0.00
2013-6-22,87.4,83.2,78.1,45.0,31.7,11.0,25,17,7,29.67,29.60,5,2,9,0.00
2013-6-23,92.8,80.6,78.1,48.0,45.9,31.0,35,31,11,29.59,29.58,8,5,14,0.00
2013-6-24,85.4,80.3,78.6,36.0,34.4,33.0,20,19,17,29.58,29.54,4,1,5,0.00
2013-6-25,94.3,94.2,94.2,36.0,35.0,34.0,13,12,12,29.64,29.64,5,4,15,0.00
2013-6-27,102.9,91.3,79.9,37.0,13.1,4.0,14,6,3,29.68,29.58,19,4,31,0.00
2013-7-5,94.4,93.9,93.6,51.0,50.3,49.0,23,22,21,29.52,29.51,6,6,10,0.00
2013-7-8,83.5,83.2,83.0,54.0,54.0,54.0,37,36,36,29.71,29.70,21,16,23,0.00
2013-7-9,88.8,81.2,76.9,57.0,55.1,50.0,49,41,27,29.75,29.65,26,12,30,0.00
2013-7-10,93.2,81.9,74.2,59.0,55.4,50.0,57,42,24,29.77,29.60,17,9,21,0.00
2013-7-11,95.5,87.1,75.7,59.0,54.3,50.0,56,34,22,29.69,29.58,13,6,21,0.00
2013-7-12,96.6,83.4,72.7,61.0,55.1,48.0,60,40,20,29.69,29.54,17,4,21,0.00
2013-7-13,94.5,82.3,70.5,59.0,53.3,43.0,63,39,20,29.72,29.57,12,3,20,0.00
2013-7-14,97.1,86.3,73.4,58.0,52.4,45.0,58,33,19,29.68,29.49,21,5,26,0.00
2013-7-15,81.4,73.8,64.0,58.0,55.4,50.0,77,53,37,29.82,29.55,27,16,36,0.00
2013-7-16,83.4,73.1,61.8,58.0,51.1,45.0,86,48,26,29.91,29.81,20,7,28,0.00
2013-7-17,75.8,70.2,65.6,60.0,55.3,52.0,81,60,50,29.98,29.88,27,12,40,0.01
2013-7-18,72.0,65.7,62.5,64.0,62.1,60.0,94,88,75,29.98,29.88,19,7,26,0.88
2013-7-19,80.7,71.9,66.6,64.0,62.1,59.0,85,72,50,29.92,29.73,21,7,26,0.00
2013-7-20,84.1,76.2,69.0,64.0,61.4,56.0,79,62,41,29.79,29.61,19,7,23,0.00
2013-7-21,93.1,79.1,69.6,61.0,58.2,50.0,70,51,25,29.73,29.57,10,3,15,0.00
2013-7-22,91.0,76.7,68.3,67.0,61.1,54.0,90,61,29,29.75,29.61,11,2,19,0.09
2013-7-23,75.2,69.7,67.1,61.0,59.6,58.0,76,71,61,29.77,29.73,3,0,6,0.00
2013-7-25,88.7,77.4,65.9,64.0,61.8,59.0,91,60,42,29.88,29.78,36,6,40,0.08
2013-7-26,93.2,78.0,69.7,67.0,63.6,57.0,88,63,36,29.88,29.75,17,3,28,0.10
2013-7-27,79.5,73.7,66.7,66.0,62.2,58.0,87,68,56,29.89,29.74,25,9,34,0.00
2013-7-28,87.4,75.8,65.7,65.0,61.8,57.0,86,63,43,29.80,29.64,9,1,22,0.05
2013-7-29,92.5,81.0,70.6,64.0,57.7,51.0,67,48,25,29.78,29.70,10,2,13,0.00
2013-7-30,96.3,82.6,72.9,60.0,55.9,47.0,60,42,22,29.85,29.75,16,3,28,0.00
2013-7-31,96.2,85.5,75.3,60.0,54.2,44.0,52,36,18,29.86,29.71,11,3,19,0.00
2013-8-1,93.1,85.0,74.5,62.0,54.2,48.0,64,37,22,29.83,29.66,15,4,21,0.00
2013-8-2,94.4,83.2,71.9,62.0,58.5,54.0,68,45,27,29.73,29.61,9,2,18,0.15
2013-8-3,94.2,83.6,73.2,61.0,56.6,52.0,64,42,25,29.76,29.64,8,2,11,0.00
2013-8-4,97.3,86.6,77.2,60.0,53.8,49.0,50,34,21,29.76,29.59,7,2,14,0.00
2013-8-5,96.0,83.1,72.4,60.0,54.8,46.0,66,40,20,29.74,29.60,11,4,19,0.01
2013-8-6,89.6,79.1,69.3,60.0,55.6,49.0,66,47,26,29.78,29.66,11,3,17,0.00
2013-8-7,86.9,77.6,67.8,59.0,55.4,51.0,68,48,30,29.79,29.66,12,4,17,0.00
2013-8-8,91.4,80.8,69.0,56.0,50.0,40.0,56,36,20,29.76,29.63,11,2,14,0.00
2013-8-9,95.5,85.2,75.8,52.0,43.7,40.0,33,24,16,29.74,29.64,15,5,22,0.00
2013-8-10,83.7,77.7,66.7,63.0,55.7,47.0,86,48,29,29.89,29.74,22,9,27,0.00
2013-8-11,89.5,78.2,65.7,61.0,57.2,50.0,84,51,28,29.91,29.74,15,6,24,0.00
2013-8-12,92.2,83.0,75.2,60.0,56.4,52.0,53,41,26,29.81,29.66,21,7,23,0.00
2013-8-13,91.9,82.7,72.9,64.0,57.9,50.0,69,44,30,29.80,29.66,21,6,21,0.01
2013-8-14,93.9,82.6,67.6,63.0,56.6,53.0,82,43,27,29.84,29.64,21,8,30,0.28
2013-8-15,89.2,78.3,65.7,63.0,57.7,49.0,88,52,31,29.85,29.74,13,2,21,0.09
2013-8-16,92.8,82.6,72.3,61.0,55.6,46.0,63,41,20,29.84,29.71,15,2,21,0.00
2013-8-17,96.2,86.0,75.2,57.0,49.3,43.0,45,29,17,29.81,29.64,13,3,21,0.00
2013-8-18,95.6,85.5,75.9,54.0,48.8,45.0,40,28,18,29.78,29.64,19,6,29,0.07
2013-8-19,94.7,82.8,74.7,57.0,51.8,43.0,50,35,22,29.77,29.64,15,3,20,0.11
2013-8-20,92.6,82.6,73.1,58.0,50.3,45.0,52,34,20,29.74,29.64,17,4,23,0.00
2013-8-21,92.5,81.9,70.7,58.0,48.5,31.0,59,34,15,29.78,29.65,15,4,21,0.00
2013-8-22,89.7,82.1,74.2,54.0,46.3,34.0,47,30,14,29.81,29.65,21,8,24,0.00
2013-8-23,89.0,78.9,72.2,57.0,52.7,47.0,52,41,23,29.77,29.64,24,10,27,0.00
2013-8-24,87.0,78.2,70.8,58.0,55.9,53.0,62,47,33,29.82,29.70,24,10,27,0.00
2013-8-25,91.6,81.5,71.1,59.0,54.4,50.0,65,41,24,29.88,29.73,20,7,25,0.00
2013-8-26,89.9,81.4,73.7,56.0,53.3,50.0,52,39,27,29.85,29.71,17,6,32,0.00
2013-8-27,83.8,76.9,71.0,61.0,57.2,53.0,66,51,37,29.82,29.70,26,7,29,0.22
2013-8-28,76.6,71.8,68.4,67.0,62.9,60.0,91,74,60,29.90,29.75,12,4,17,0.00
2013-8-29,77.3,70.5,63.6,67.0,64.4,61.0,95,81,65,29.99,29.89,16,3,26,0.65
2013-8-30,87.0,77.1,68.7,66.0,62.2,59.0,78,62,40,29.93,29.75,4,1,10,0.00
2013-8-31,92.7,82.2,69.6,64.0,57.7,50.0,73,46,26,29.77,29.60,8,2,11,0.00
2013-9-1,95.9,84.9,73.1,61.0,52.3,41.0,59,35,16,29.69,29.58,10,3,20,0.00
2013-9-2,93.5,82.6,66.8,67.0,53.5,45.0,88,39,25,29.75,29.61,23,8,33,0.23
2013-9-3,89.3,81.6,74.6,59.0,53.0,43.0,54,39,22,29.82,29.67,16,5,25,0.00
2013-9-4,89.5,81.4,74.9,54.0,50.9,48.0,45,35,25,29.86,29.73,18,5,21,0.00
2013-9-5,90.5,82.5,76.2,54.0,47.7,39.0,45,31,18,29.86,29.74,19,7,25,0.00
2013-9-6,90.2,82.3,75.1,55.0,52.6,48.0,49,37,25,29.85,29.67,18,7,25,0.00
2013-9-7,91.8,81.6,75.0,55.0,52.2,46.0,49,37,25,29.78,29.63,21,9,26,0.00
2013-9-8,89.9,81.4,74.1,56.0,51.5,45.0,51,37,24,29.71,29.53,19,7,22,0.00
2013-9-9,88.0,76.2,71.0,61.0,56.3,52.0,65,51,35,29.65,29.54,28,13,30,0.00
2013-9-10,74.8,68.5,64.6,65.0,62.8,60.0,93,82,64,29.81,29.64,20,9,26,0.87
2013-9-11,76.8,70.0,65.9,68.0,64.7,63.0,94,83,65,29.85,29.76,25,6,31,0.60
2013-9-12,70.6,67.1,64.6,65.0,62.6,59.0,93,85,74,29.84,29.77,25,13,33,1.56
2013-9-13,72.4,69.2,65.4,64.0,61.2,57.0,86,76,59,29.81,29.68,25,11,29,0.02
2013-9-14,82.2,74.3,69.0,58.0,55.3,53.0,63,53,38,29.77,29.64,22,10,27,0.00
2013-9-15,85.0,76.1,70.5,59.0,55.0,51.0,56,48,37,29.77,29.66,20,9,24,0.00
2013-9-16,80.5,73.5,67.1,62.0,58.5,56.0,68,60,49,29.86,29.75,27,10,27,0.00
2013-9-17,83.8,74.1,67.4,62.0,59.7,57.0,80,62,43,29.84,29.67,21,8,29,0.00
2013-9-18,84.3,75.0,66.9,62.0,59.5,57.0,77,60,41,29.75,29.58,18,9,26,0.00
2013-9-19,83.2,74.0,68.5,65.0,61.7,59.0,82,66,48,29.70,29.57,21,8,29,0.00
2013-9-20,79.5,72.0,64.7,63.0,58.2,53.0,84,64,41,29.82,29.66,21,6,33,0.00
2013-9-21,78.4,69.3,62.3,59.0,54.9,51.0,81,62,42,29.88,29.72,29,11,36,0.00
2013-9-22,83.6,73.9,64.9,55.0,51.1,47.0,63,47,31,29.72,29.48,17,8,24,0.00
2013-9-23,80.8,72.8,62.8,56.0,43.8,34.0,61,38,21,29.77,29.54,12,3,18,0.00
2013-9-24,84.4,73.6,62.4,46.0,37.8,33.0,45,28,17,29.89,29.74,12,2,15,0.00
2013-9-25,87.5,78.7,67.9,50.0,42.5,35.0,35,28,23,29.74,29.48,14,5,20,0.00
2013-9-26,85.5,77.3,68.4,48.0,43.8,40.0,39,31,23,29.63,29.50,9,2,14,0.00
2013-9-27,83.3,74.6,65.5,56.0,50.2,40.0,61,44,24,29.68,29.50,16,4,17,0.00
2013-9-28,74.5,66.6,57.3,43.0,32.3,20.0,53,30,17,30.00,29.68,9,2,12,0.00
2013-9-29,78.3,68.6,53.4,39.0,32.7,16.0,47,28,14,30.02,29.84,11,2,13,0.00
2013-9-30,84.0,73.3,61.3,43.0,33.1,23.0,39,24,13,29.85,29.67,8,2,16,0.00
2013-10-1,84.8,74.6,63.2,35.0,26.0,16.0,27,17,8,29.78,29.68,8,3,18,0.00
2013-10-2,83.7,73.8,58.4,40.0,33.3,25.0,37,23,17,29.80,29.65,11,2,13,0.00
2013-10-3,82.7,73.6,63.5,42.0,33.8,24.0,36,24,12,29.73,29.59,11,2,17,0.00
2013-10-4,81.8,71.0,61.1,47.0,39.1,32.0,53,33,17,29.77,29.63,17,3,20,0.00
2013-10-5,70.6,64.1,55.7,36.0,23.4,12.0,41,22,13,30.01,29.76,16,5,23,0.00
2013-10-6,72.7,63.5,51.3,29.0,22.2,12.0,33,21,13,30.13,30.01,15,3,20,0.00
2013-10-7,77.9,69.1,53.6,31.0,24.2,19.0,40,19,13,30.07,29.86,20,7,23,0.00
2013-10-8,82.0,73.2,64.7,39.0,29.2,19.0,27,20,14,29.86,29.64,15,4,18,0.00
2013-10-9,82.5,72.5,61.6,41.0,35.1,29.0,33,26,16,29.75,29.61,15,3,18,0.00
2013-10-10,79.5,70.8,58.9,46.0,38.4,32.0,49,32,18,29.70,29.57,24,7,34,0.00
2013-10-11,73.9,63.0,51.6,41.0,36.4,33.0,54,38,26,29.84,29.70,13,3,19,0.00
2013-10-12,78.8,67.7,51.3,40.0,36.4,30.0,56,33,17,29.92,29.80,25,6,32,0.00
2013-10-13,77.7,71.8,66.3,53.0,47.0,41.0,57,42,30,29.86,29.76,27,10,35,0.00
2013-10-14,73.2,68.7,64.9,50.0,47.2,46.0,52,46,41,29.85,29.74,8,2,19,0.00
2013-10-15,71.3,64.5,56.2,54.0,49.7,47.0,70,59,50,29.82,29.72,33,9,45,0.00
2013-10-16,71.9,61.2,53.0,50.0,37.3,13.0,83,49,15,29.94,29.78,32,9,40,0.00
2013-10-17,72.5,63.1,49.9,29.0,20.4,12.0,33,20,15,29.96,29.78,7,2,12,0.00
2013-10-18,73.2,63.8,52.4,30.0,20.8,15.0,36,20,13,29.89,29.77,28,5,37,0.00
2013-10-19,71.9,58.8,49.1,32.0,28.4,25.0,47,33,18,30.06,29.89,31,9,36,0.00
2013-10-20,74.9,64.8,55.2,34.0,23.4,11.0,35,22,11,29.91,29.69,11,2,17,0.00
2013-10-21,67.5,60.2,53.4,35.0,26.0,12.0,42,28,14,30.00,29.76,24,10,29,0.00
2013-10-22,70.3,62.3,54.2,39.0,34.1,29.0,53,36,22,30.11,29.97,24,10,29,0.00
2013-10-23,75.3,66.9,59.3,36.0,31.7,27.0,36,27,19,30.00,29.86,21,10,26,0.00
2013-10-24,78.7,70.4,64.4,41.0,36.6,33.0,33,29,26,29.95,29.80,21,11,30,0.00
2013-10-25,77.4,68.3,61.8,43.0,38.7,33.0,45,34,25,29.94,29.82,30,13,35,0.00
2013-10-26,74.1,64.1,52.5,46.0,39.3,30.0,71,43,20,30.02,29.88,17,6,28,0.00
2013-10-27,74.2,65.1,57.3,42.0,38.8,36.0,46,38,31,30.00,29.73,21,10,27,0.00
2013-10-28,75.6,68.5,60.2,42.0,31.6,18.0,47,28,12,29.81,29.69,15,3,19,0.00
2013-10-29,71.3,66.7,64.0,36.0,26.7,14.0,34,23,11,29.85,29.72,7,2,15,0.00
2013-10-30,67.8,61.6,52.5,53.0,41.7,31.0,87,49,37,29.82,29.67,15,5,28,0.01
2013-10-31,65.7,55.2,45.4,30.0,19.7,7.0,44,27,10,30.00,29.83,12,4,16,0.00
2013-11-1,65.4,56.9,46.7,27.0,20.5,11.0,36,25,13,30.09,29.95,12,3,22,0.00
2013-11-2,69.9,61.8,53.8,23.0,20.0,14.0,28,20,15,30.16,29.88,22,10,31,0.00
2013-11-3,72.2,64.0,53.2,44.0,30.0,16.0,55,29,17,29.87,29.64,22,6,30,0.00
2013-11-4,70.5,62.3,51.8,50.0,45.7,40.0,80,56,36,29.77,29.64,17,4,20,0.00
2013-11-5,64.5,59.3,54.9,45.0,38.9,26.0,60,48,32,30.00,29.68,9,3,22,0.00
2013-11-6,63.4,53.9,44.2,28.0,16.8,-4.0,47,25,9,30.26,30.00,13,4,16,0.00
2013-11-7,65.0,55.1,41.9,23.0,14.7,5.0,29,21,12,30.35,30.13,30,9,36,0.00
2013-11-8,69.0,59.4,50.5,42.0,35.3,23.0,53,41,30,30.13,29.90,22,5,29,0.00
2013-11-9,72.7,61.8,51.8,47.0,37.6,28.0,77,45,22,30.03,29.95,4,1,9,0.00
2013-11-10,74.2,64.9,51.2,38.0,31.5,28.0,46,29,19,30.11,29.98,14,4,20,0.00
2013-11-11,73.5,66.8,55.2,42.0,37.0,31.0,47,34,25,30.05,29.93,20,8,23,0.00
2013-11-12,66.2,53.8,43.6,43.0,38.4,36.0,75,58,37,30.37,30.03,40,22,47,0.00
2013-11-13,56.9,49.0,41.6,41.0,38.0,35.0,90,67,54,30.39,30.09,36,17,48,0.00
2013-11-14,65.8,56.2,46.7,45.0,41.7,40.0,82,60,42,30.08,29.84,16,2,18,0.00
2013-11-15,68.6,60.5,55.4,49.0,44.3,41.0,76,56,42,29.84,29.61,17,4,26,0.05
2013-11-16,71.7,61.9,54.8,47.0,44.7,39.0,72,55,33,29.73,29.59,18,7,28,0.00
2013-11-17,67.0,58.4,50.7,43.0,40.2,35.0,70,52,36,29.98,29.73,14,4,20,0.00
2013-11-18,69.3,61.1,52.7,40.0,36.8,33.0,51,41,31,30.06,29.92,15,4,17,0.00
2013-11-19,70.1,62.3,51.2,44.0,39.9,37.0,62,45,34,29.92,29.73,12,2,15,0.00
2013-11-20,68.5,61.1,54.4,43.0,39.2,33.0,57,45,35,29.79,29.67,10,1,14,0.00
2013-11-21,71.0,62.6,53.8,42.0,38.0,34.0,57,41,31,29.89,29.77,18,4,22,0.00
2013-11-22,62.8,40.3,32.4,37.0,29.0,24.0,73,65,35,30.27,29.83,50,32,59,0.00
2013-11-23,36.4,33.1,28.8,28.0,26.4,24.0,87,76,67,30.45,30.27,43,25,57,0.00
2013-11-24,31.4,28.9,26.6,28.0,25.4,23.0,89,86,84,30.39,30.29,24,9,29,0.00
2013-11-25,43.1,35.1,30.5,33.0,30.0,27.0,90,82,63,30.36,30.24,11,2,12,0.03
2013-11-26,50.5,42.2,33.5,31.0,26.5,23.0,83,56,37,30.48,30.36,13,3,20,0.00
2013-11-27,45.9,42.0,37.6,24.0,22.4,20.0,56,46,36,30.42,30.19,20,8,23,0.00
2013-11-28,56.7,47.6,35.6,28.0,25.3,22.0,63,43,32,30.27,30.15,17,5,23,0.00
2013-11-29,63.2,52.6,39.6,35.0,31.5,26.0,63,46,34,30.28,30.13,22,3,26,0.00
2013-11-30,65.0,54.6,44.2,38.0,35.6,33.0,69,50,36,30.19,30.06,6,1,9,0.00
2013-12-1,58.2,54.7,50.9,42.0,37.4,32.0,64,53,38,30.13,30.03,5,1,6,0.00
2013-12-2,63.5,53.1,37.6,37.0,27.5,14.0,77,42,17,30.03,29.82,7,2,10,0.00
2013-12-3,69.2,57.8,47.5,38.0,23.7,16.0,52,28,16,29.82,29.62,13,3,20,0.00
2013-12-4,66.3,58.4,52.1,44.0,38.1,32.0,67,49,30,29.75,29.60,24,7,35,0.00
2013-12-5,54.7,48.0,40.4,47.0,40.0,34.0,94,75,51,29.90,29.69,19,5,22,0.19
2013-12-6,48.9,41.5,34.5,33.0,27.8,24.0,77,60,39,30.13,29.90,24,7,34,0.00
2013-12-7,46.0,36.1,30.1,34.0,30.1,26.0,92,80,50,30.12,29.96,37,17,47,0.00
2013-12-8,53.5,44.7,37.6,28.0,23.2,17.0,60,44,31,30.06,29.92,11,4,18,0.00
2013-12-9,52.0,43.5,36.1,31.0,22.0,5.0,68,46,20,30.32,29.97,15,5,22,0.00
2013-12-10,48.3,35.9,22.8,8.0,4.8,1.0,51,28,15,30.42,30.25,11,1,15,0.00
2013-12-11,51.8,42.0,31.2,21.0,12.8,4.0,42,31,21,30.43,30.29,28,8,32,0.00
2013-12-12,46.0,41.9,36.8,35.0,28.2,17.0,85,61,35,30.43,30.13,25,8,31,0.02
2013-12-13,54.5,44.6,37.2,39.0,34.2,31.0,91,69,42,30.12,29.99,13,3,22,0.02
2013-12-14,51.2,45.4,37.7,33.0,25.7,20.0,73,48,30,30.35,30.05,21,5,21,0.00
2013-12-15,53.0,44.1,34.6,25.0,22.1,20.0,61,43,30,30.38,30.25,8,2,10,0.00
2013-12-16,58.4,47.8,34.7,25.0,22.3,20.0,57,38,26,30.35,30.21,8,3,12,0.00
2013-12-17,62.8,53.3,39.1,28.0,23.9,22.0,54,33,23,30.32,30.16,8,1,11,0.00
2013-12-18,59.2,52.1,43.6,28.0,23.8,20.0,46,34,25,30.16,29.87,4,1,5,0.00
2013-12-19,67.9,57.7,49.9,24.0,19.1,3.0,34,23,8,29.85,29.62,11,2,23,0.00
2013-12-20,55.7,50.8,38.0,43.0,33.4,19.0,81,55,25,29.66,29.48,9,4,19,0.02
2013-12-21,43.9,38.7,33.0,32.0,30.6,29.0,91,74,58,29.96,29.61,19,7,25,0.01
2013-12-22,50.4,41.9,36.1,30.0,25.4,21.0,74,54,31,30.29,29.96,12,3,14,0.00
2013-12-23,53.8,43.3,33.6,27.0,22.1,17.0,68,45,28,30.46,30.29,12,2,15,0.00
2013-12-24,55.1,45.7,35.5,26.0,22.6,17.0,56,41,31,30.39,30.13,17,3,17,0.00
2013-12-25,50.8,44.8,39.4,28.0,25.4,22.0,61,47,38,30.35,30.16,28,6,34,0.00
2013-12-26,51.2,42.8,36.6,27.0,24.2,20.0,62,49,37,30.38,30.22,18,4,20,0.00
2013-12-27,51.8,44.4,36.4,26.0,22.9,21.0,57,43,34,30.36,30.22,11,3,19,0.00
2013-12-28,53.6,45.6,36.5,29.0,25.5,23.0,61,46,38,30.22,29.93,7,2,14,0.00
2013-12-29,48.5,44.0,34.8,25.0,22.5,19.0,57,43,33,30.19,29.92,27,10,31,0.00
2013-12-30,52.8,42.5,31.4,25.0,21.2,13.0,64,45,24,30.34,30.18,18,3,22,0.00
2013-12-31,55.6,47.4,36.4,23.0,20.2,16.0,47,34,26,30.33,30.10,22,5,30,0.00
2014-1-1,59.3,51.0,39.9,25.0,21.4,15.0,51,33,19,30.16,30.02,14,3,21,0.00
2014-1-2,55.8,47.1,38.4,27.0,23.6,14.0,63,41,20,30.32,30.16,33,16,39,0.00